Location: Banff
(51.1670°N, 115.5670°W)
Time: 20:33:24
(UTC-07:00)

Amateur Radio Satellites - All Passes

Search period start: 11 February 2016 20:03
Search period end: 12 February 2016 20:03
Location: Banff, 51.1670°N, 115.5670°W

Satellite Date Start Highest point End Downlink Frequencies (MHz)
Time Altitude Azimuth
CINEMA 3 11 Feb 20:04:03 20:08:35 80° 74° (ENE) 20:12:56 145.822/145.860
AIST 2 11 Feb 20:06:11 20:10:22 82° 312° (NW) 20:14:34 435.215
AIST 1 11 Feb 20:19:09 20:20:52 12° 59° (ENE) 20:22:35
STRAND 1 11 Feb 20:26:11 20:31:22 79° 288° (WNW) 20:36:32 437.568
CANX-2 11 Feb 20:30:02 20:34:05 45° 262° (W) 20:38:11 2200.000
ISS 11 Feb 20:30:55 20:34:08 65° 199° (SSW) 20:37:21 145.825
CUBESAT XI-V 11 Feb 20:35:02 20:37:12 13° 307° (NW) 20:39:21 437.345
PCSat 11 Feb 20:37:18 20:42:14 36° 246° (WSW) 20:47:09 145.827
BRITE-PL 11 Feb 20:42:42 20:42:57 10° 279° (W) 20:43:12 437.365/2234.400
ZACube-1 11 Feb 20:42:56 20:46:52 41° 68° (ENE) 20:50:47 437.345
HUMSAT D 11 Feb 20:44:59 20:47:33 16° 59° (ENE) 20:50:07 437.325/437.525
BEESAT 3 11 Feb 20:45:43 20:47:50 14° 345° (NNW) 20:49:56 437.485
FUNcube-1 11 Feb 20:50:47 20:54:47 46° 70° (ENE) 20:58:46 145.935
DELFI C3 11 Feb 20:53:26 20:57:07 37° 68° (ENE) 21:00:50 145.870
Cosmos 2499 11 Feb 20:57:30 21:06:02 68° 75° (ENE) 21:13:53 435.465 / 435.565
COMPASS 1 11 Feb 21:04:58 21:08:50 38° 263° (W) 21:12:46 437.405
DOVE 4 11 Feb 21:05:01 21:07:46 15° 272° (W) 21:10:28 437.250
GONETS M04 11 Feb 21:05:47 21:14:25 63° 267° (W) 21:23:04
PRISM 11 Feb 21:11:26 21:15:38 73° 288° (WNW) 21:19:47 437.425
BEESAT 2 11 Feb 21:14:06 21:16:07 13° 348° (NNW) 21:18:07 435.950
Oscar 11 11 Feb 21:20:10 21:24:28 70° 258° (WSW) 21:28:48 145.826/435.025
AISAT 11 Feb 21:21:37 21:23:14 12° 52° (NE) 21:24:49 437.250
CUTE 1.7 + AOD 2 11 Feb 21:21:56 21:24:45 17° 271° (W) 21:27:37 437.475
UKube-1 11 Feb 21:23:17 21:24:09 11° 51° (NE) 21:25:01 .
SEEDS 11 Feb 21:24:02 21:27:11 20° 269° (W) 21:30:22 437.485
UWE-3 11 Feb 21:29:54 21:34:00 51° 260° (W) 21:38:06 435.000/436.395/437.385
AAUSAT CUBESAT 2 11 Feb 21:32:08 21:35:35 25° 267° (W) 21:39:04 437.432
CUBEBUG 2 11 Feb 21:34:03 21:37:58 35° 263° (W) 21:41:52 437.445
CUBEBUG 1 11 Feb 21:34:45 21:36:33 12° 53° (NE) 21:38:21 437.445
DX 1 11 Feb 21:37:08 21:39:47 16° 56° (NE) 21:42:26 434.975-435.025
CINEMA 3 11 Feb 21:43:53 21:46:16 14° 272° (W) 21:48:36 145.822/145.860
AIST 2 11 Feb 21:46:14 21:49:29 21° 333° (NNW) 21:52:44 435.215
HO-68 11 Feb 21:48:16 21:53:23 21° 273° (W) 21:58:33 435.675
ESTCUBE 1 11 Feb 21:50:01 21:53:24 21° 59° (ENE) 21:56:47 437.505/2401.250
ANTELSAT 11 Feb 21:52:28 21:53:54 11° 86° (E) 21:55:20 437.575/2403.000
AIST 1 11 Feb 21:54:53 21:59:17 83° 82° (E) 22:03:36
RS-15 11 Feb 21:57:26 22:08:30 44° 249° (WSW) 22:19:44 29.354- 29.394
TIGRISAT 11 Feb 21:58:14 22:00:04 12° 87° (E) 22:01:55 435.000
STRAND 1 11 Feb 22:06:43 22:09:47 16° 308° (NW) 22:12:50 437.568
ISS 11 Feb 22:07:51 22:10:10 18° 217° (SW) 22:12:28 145.825
50 SAT 11 Feb 22:14:59 22:18:13 29° 66° (ENE) 22:21:29 437.505
HUMSAT D 11 Feb 22:18:41 22:22:45 68° 258° (WSW) 22:26:50 437.325/437.525
ZACube-1 11 Feb 22:19:58 22:23:21 24° 267° (W) 22:26:44 437.345
BEESAT 3 11 Feb 22:25:27 22:27:12 12° 9° (N) 22:28:57 437.485
FUNcube-1 11 Feb 22:28:08 22:31:19 21° 268° (W) 22:34:29 145.935
DELFI C3 11 Feb 22:28:51 22:32:09 25° 267° (W) 22:35:29 145.870
VELOX 1 11 Feb 22:37:35 22:41:52 46° 68° (ENE) 22:46:08 145.980
UNISAT 6 11 Feb 22:42:09 22:46:05 33° 96° (E) 22:50:04 437.425
PRISM 11 Feb 22:48:50 22:50:14 11° 307° (NW) 22:51:37 437.425
Cosmos 2499 11 Feb 22:51:20 22:58:33 33° 279° (W) 23:05:20 435.465 / 435.565
BEESAT 2 11 Feb 22:53:40 22:55:39 13° 12° (NNE) 22:57:37 435.950
AISAT 11 Feb 22:54:29 22:58:55 68° 72° (ENE) 23:03:23 437.250
UKube-1 11 Feb 22:55:05 22:59:22 62° 70° (ENE) 23:03:40 .
POPSAT HIP 1 11 Feb 22:59:44 23:01:52 14° 88° (E) 23:03:59 437.405
SPROUT 11 Feb 23:01:18 23:04:55 27° 63° (ENE) 23:08:32 437.525
NANOSAT C BR1 11 Feb 23:02:52 23:05:11 14° 88° (E) 23:07:27 145.865
DUCHIFAT 1 11 Feb 23:03:23 23:05:34 14° 88° (E) 23:07:43 145.980
TISAT 1 11 Feb 23:03:36 23:05:40 13° 55° (NE) 23:07:43 437.305
GONETS M04 11 Feb 23:04:50 23:09:23 15° 291° (WNW) 23:13:56
CUBEBUG 1 11 Feb 23:07:40 23:12:05 73° 73° (ENE) 23:16:32 437.445
DX 1 11 Feb 23:11:02 23:15:26 82° 255° (WSW) 23:19:51 434.975-435.025
QB50P1 11 Feb 23:11:34 23:14:28 18° 90° (E) 23:17:21 145.935-145.965
ESTCUBE 1 11 Feb 23:25:20 23:29:50 61° 258° (WSW) 23:34:22 437.505/2401.250
ANTELSAT 11 Feb 23:26:56 23:31:18 86° 105° (ESE) 23:35:44 437.575/2403.000
AIST 2 11 Feb 23:27:36 23:29:28 13° 357° (N) 23:31:19 435.215
TIGRISAT 11 Feb 23:33:03 23:37:23 87° 290° (WNW) 23:41:48 435.000
AIST 1 11 Feb 23:34:22 23:36:12 12° 279° (W) 23:38:02
50 SAT 11 Feb 23:49:00 23:52:14 28° 264° (W) 23:55:30 437.505
BUGSAT 1 11 Feb 23:54:33 23:57:49 23° 93° (E) 00:01:04 437.445
Cosmos 2491 11 Feb 23:59:52 00:05:06 17° 45° (NE) 00:10:20 435.465 / 435.565
BEESAT 3 12 Feb 00:02:48 00:06:14 27° 33° (NNE) 00:09:38 437.485
POLYITAN 1 12 Feb 00:04:17 00:08:27 57° 101° (E) 00:12:36 437.675
QB50P2 12 Feb 00:04:49 00:09:00 59° 102° (ESE) 00:13:10 145.880/145.840
SWISSCUBE 12 Feb 00:07:25 00:10:18 16° 54° (NE) 00:13:11 437.505
VELOX 1 12 Feb 00:14:54 00:18:33 24° 267° (W) 00:22:14 145.980
UNISAT 6 12 Feb 00:18:57 00:22:49 33° 295° (WNW) 00:26:45 437.425
BEESAT 2 12 Feb 00:31:08 00:34:44 30° 35° (NE) 00:38:19 435.950
UKube-1 12 Feb 00:32:54 00:35:50 18° 269° (W) 00:38:47 .
AISAT 12 Feb 00:32:59 00:35:54 17° 271° (W) 00:38:48 437.250
POPSAT HIP 1 12 Feb 00:34:00 00:38:13 76° 287° (WNW) 00:42:24 437.405
TISAT 1 12 Feb 00:36:29 00:40:43 88° 81° (E) 00:44:58 437.305
SPROUT 12 Feb 00:36:42 00:40:45 40° 262° (W) 00:44:50 437.525
NANOSAT C BR1 12 Feb 00:37:14 00:41:26 72° 287° (WNW) 00:45:37 145.865
DUCHIFAT 1 12 Feb 00:37:37 00:41:48 75° 288° (WNW) 00:45:58 145.980
Oscar 19 12 Feb 00:41:27 00:42:56 11° 84° (E) 00:44:23 437.125/150
ITUPSAT 1 12 Feb 00:44:03 00:48:03 27° 61° (ENE) 00:52:05 437.325
CUBEBUG 1 12 Feb 00:46:15 00:48:55 16° 272° (W) 00:51:35 437.445
QB50P1 12 Feb 00:46:29 00:50:38 57° 289° (WNW) 00:54:45 145.935-145.965
CUSAT 1 12 Feb 00:48:20 00:54:48 27° 83° (E) 01:01:00 437.405
BEESAT 12 Feb 00:50:46 00:54:56 31° 62° (ENE) 00:59:06 436.000
DX 1 12 Feb 00:51:07 00:52:21 11° 274° (W) 00:53:36 434.975-435.025
ANTELSAT 12 Feb 01:05:02 01:07:28 15° 303° (WNW) 01:09:55 437.575/2403.000
AIST 2 12 Feb 01:06:40 01:09:33 18° 21° (NNE) 01:12:25 435.215
JAS-2 12 Feb 01:09:55 01:13:14 16° 84° (E) 01:16:23 435.910
TIGRISAT 12 Feb 01:11:18 01:13:28 14° 304° (NW) 01:15:40 435.000
BUGSAT 1 12 Feb 01:29:35 01:33:23 40° 292° (WNW) 01:37:09 437.445
Gurwin Techsat 1B 12 Feb 01:30:25 01:32:47 13° 84° (E) 01:35:08 435.225
DANDE 12 Feb 01:39:58 01:47:15 37° 86° (E) 01:54:44 436.750
BEESAT 3 12 Feb 01:40:22 01:44:19 60° 233° (SW) 01:48:11 437.485
POLYITAN 1 12 Feb 01:40:53 01:43:55 20° 300° (WNW) 01:46:59 437.675
QB50P2 12 Feb 01:41:27 01:44:27 19° 300° (WNW) 01:47:26 145.880/145.840
SWISSCUBE 12 Feb 01:42:40 01:47:27 88° 71° (ENE) 01:52:16 437.505
KKS-1 12 Feb 01:53:19 01:56:36 20° 59° (ENE) 01:59:52 437.445
ITAMSAT 1 12 Feb 01:55:33 01:56:54 11° 83° (E) 01:58:16 435.822/435.867
Cosmos 2491 12 Feb 01:55:45 02:04:22 56° 72° (ENE) 02:12:57 435.465 / 435.565
MOZHAYETS 4 12 Feb 02:05:36 02:07:34 13° 53° (NE) 02:09:32
BEESAT 2 12 Feb 02:08:57 02:12:50 49° 235° (SW) 02:16:40 435.950
POPSAT HIP 1 12 Feb 02:11:46 02:13:18 12° 306° (NW) 02:14:50 437.405
PHONESAT 2.4 12 Feb 02:11:53 02:13:20 12° 173° (S) 02:14:47 2401.200-2431.200
NANOSAT C BR1 12 Feb 02:15:10 02:16:27 11° 306° (NW) 02:17:44 145.865
DUCHIFAT 1 12 Feb 02:15:24 02:16:48 11° 306° (NW) 02:18:12 145.980
TISAT 1 12 Feb 02:15:26 02:17:01 12° 273° (W) 02:18:37 437.305
Oscar 19 12 Feb 02:18:05 02:23:13 70° 102° (ESE) 02:28:20 437.125/150
ITUPSAT 1 12 Feb 02:21:03 02:25:41 49° 260° (W) 02:30:22 437.325
BEESAT 12 Feb 02:28:06 02:32:36 42° 262° (W) 02:37:10 436.000
CUSAT 1 12 Feb 02:28:13 02:36:25 86° 282° (WNW) 02:44:09 437.405
AIST 2 12 Feb 02:44:47 02:48:54 56° 44° (NE) 02:52:58 435.215
YUBILEINY 12 Feb 02:51:19 02:59:19 41° 85° (E) 03:07:22 435.215
JAS-2 12 Feb 02:53:33 02:59:23 88° 287° (WNW) 03:04:40 435.910
Cosmos 2504 12 Feb 03:00:58 03:03:06 11° 64° (ENE) 03:05:14 435.465 / 435.565
STARS 12 Feb 03:04:57 03:09:11 48° 69° (ENE) 03:13:26 437.465
Gurwin Techsat 1B 12 Feb 03:08:18 03:13:40 76° 104° (ESE) 03:19:00 435.225
DANDE 12 Feb 03:21:39 03:29:49 68° 287° (WNW) 03:38:13 436.750
SWISSCUBE 12 Feb 03:23:24 03:25:56 14° 273° (W) 03:28:30 437.505
KKS-1 12 Feb 03:28:22 03:32:48 62° 258° (WSW) 03:37:14 437.445
ITAMSAT 1 12 Feb 03:32:09 03:37:24 67° 103° (ESE) 03:42:37 435.822/435.867
MOZHAYETS 4 12 Feb 03:39:23 03:43:57 72° 73° (ENE) 03:48:34
PHONESAT 2.4 12 Feb 03:48:29 03:49:45 12° 190° (S) 03:51:01 2401.200-2431.200
Cosmos 2491 12 Feb 03:53:01 04:01:00 42° 275° (W) 04:09:00 435.465 / 435.565
Oscar 19 12 Feb 03:58:12 04:02:06 22° 303° (WNW) 04:06:00 437.125/150
AO-7 12 Feb 03:59:28 04:07:11 39° 97° (E) 04:14:49 29.400- 29.500
CUSAT 1 12 Feb 04:13:04 04:19:41 27° 303° (WNW) 04:25:55 437.405
AUBIESAT-1 12 Feb 04:15:47 04:16:19 10° 96° (E) 04:16:51 437.475
AIST 2 12 Feb 04:23:48 04:27:07 23° 243° (WSW) 04:30:24 435.215
CUBESAT XI-V 12 Feb 04:27:29 04:31:33 30° 63° (ENE) 04:35:40 437.345
SO-50 12 Feb 04:32:49 04:36:47 25° 115° (ESE) 04:40:47 436.795
JAS-2 12 Feb 04:39:44 04:43:37 19° 310° (NW) 04:47:17 435.910
HORYU 2 12 Feb 04:41:40 04:45:39 31° 96° (E) 04:49:37 437.375
STARS 12 Feb 04:42:21 04:45:49 22° 267° (W) 04:49:18 437.465
Cosmos 2504 12 Feb 04:45:57 04:54:09 48° 87° (E) 05:02:31 435.465 / 435.565
YUBILEINY 12 Feb 04:47:14 04:55:52 57° 288° (WNW) 05:04:37 435.215
Gurwin Techsat 1B 12 Feb 04:49:07 04:53:06 22° 304° (NW) 04:57:05 435.225
DANDE 12 Feb 05:08:09 05:14:24 22° 309° (NW) 05:20:36 436.750
ITAMSAT 1 12 Feb 05:12:20 05:16:27 24° 303° (WNW) 05:20:34 435.822/435.867
MOZHAYETS 4 12 Feb 05:18:46 05:21:40 16° 272° (W) 05:24:35
CUTE-I 12 Feb 05:30:41 05:32:11 11° 83° (E) 05:33:40 437.470
M-CUBED/EXP-1 PRIME 12 Feb 05:40:26 05:43:48 77° 292° (WNW) 05:47:21 437.505
Cubesat XI-IV 12 Feb 05:44:02 05:47:00 15° 86° (E) 05:49:59 437.490
AUBIESAT-1 12 Feb 05:47:54 05:51:19 76° 293° (WNW) 05:54:55 437.475
AO-7 12 Feb 05:52:12 06:00:23 62° 299° (WNW) 06:08:30 29.400- 29.500
CUBESAT XI-V 12 Feb 06:04:21 06:08:49 42° 263° (W) 06:13:20 437.345
STRAND 1 12 Feb 06:08:33 06:13:21 42° 65° (ENE) 06:18:12 437.568
SO-50 12 Feb 06:11:59 06:16:56 69° 316° (NW) 06:21:52 436.795
HORYU 2 12 Feb 06:18:12 06:22:16 36° 295° (WNW) 06:26:20 437.375
LilacSat-2 12 Feb 06:29:22 06:32:34 25° 94° (E) 06:35:44 437.200
PRISM 12 Feb 06:31:36 06:34:49 22° 61° (ENE) 06:38:04 437.425
Cosmos 2504 12 Feb 06:39:02 06:47:31 52° 290° (WNW) 06:56:13 435.465 / 435.565
YUBILEINY 12 Feb 06:49:41 06:55:06 17° 315° (NW) 07:00:33 435.215
BRITE-PL 12 Feb 06:58:15 07:02:35 33° 93° (E) 07:06:36 437.365/2234.400
CUTE-I 12 Feb 07:07:54 07:13:17 66° 103° (ESE) 07:18:38 437.470
O/OREOS (USA 219) 12 Feb 07:10:21 07:12:57 15° 99° (E) 07:15:33 437.305
DOVE 4 12 Feb 07:19:48 07:22:06 14° 87° (E) 07:24:23 437.250
HO-68 12 Feb 07:21:31 07:25:01 14° 82° (E) 07:28:29 435.675
Cubesat XI-IV 12 Feb 07:22:29 07:27:55 84° 105° (ESE) 07:33:19 437.490
AO-7 12 Feb 07:45:51 07:51:40 22° 322° (NW) 07:57:29 29.400- 29.500
STRAND 1 12 Feb 07:48:02 07:52:38 33° 265° (W) 07:57:18 437.568
GOMX 1 12 Feb 07:50:32 07:54:56 51° 99° (E) 07:59:03 467.674
Cosmos 2499 12 Feb 07:53:51 07:56:21 11° 65° (ENE) 07:58:51 435.465 / 435.565
SO-50 12 Feb 07:54:16 07:58:17 24° 338° (NNW) 08:02:16 436.795
CINEMA 3 12 Feb 07:55:24 07:56:54 12° 86° (E) 07:58:24 145.822/145.860
LilacSat-2 12 Feb 08:03:32 08:06:57 32° 293° (WNW) 08:10:21 437.200
PRISM 12 Feb 08:05:49 08:09:53 50° 260° (W) 08:13:59 437.425
CANX-2 12 Feb 08:10:09 08:13:34 22° 92° (E) 08:16:58 2200.000
GONETS M04 12 Feb 08:17:32 08:25:03 35° 82° (E) 08:32:37
BRITE-PL 12 Feb 08:36:45 08:41:08 35° 295° (WNW) 08:45:12 437.365/2234.400
Cosmos 2504 12 Feb 08:38:21 08:43:28 16° 316° (NW) 08:48:38 435.465 / 435.565
COMPASS 1 12 Feb 08:42:46 08:46:16 24° 93° (E) 08:49:44 437.405
O/OREOS (USA 219) 12 Feb 08:47:14 08:51:43 78° 297° (WNW) 08:56:18 437.305
CUTE-I 12 Feb 08:48:38 08:52:56 25° 302° (WNW) 08:57:14 437.470
ANTELSAT 12 Feb 08:55:40 08:58:45 20° 60° (ENE) 09:01:51 437.575/2403.000
DOVE 4 12 Feb 08:56:09 09:00:25 70° 287° (WNW) 09:04:32 437.250
CUTE 1.7 + AOD 2 12 Feb 08:59:48 09:04:04 59° 101° (E) 09:08:19 437.475
SEEDS 12 Feb 09:01:26 09:05:35 47° 99° (E) 09:09:42 437.485
TIGRISAT 12 Feb 09:01:26 09:04:39 21° 61° (ENE) 09:07:52 435.000
Oscar 11 12 Feb 09:03:15 09:05:55 16° 89° (E) 09:08:34 145.826/435.025
Cubesat XI-IV 12 Feb 09:03:32 09:07:23 20° 306° (NW) 09:11:14 437.490
HO-68 12 Feb 09:07:01 09:14:12 64° 103° (ESE) 09:21:20 435.675
AAUSAT CUBESAT 2 12 Feb 09:08:34 09:12:28 35° 97° (E) 09:16:21 437.432
UWE-3 12 Feb 09:14:32 09:17:46 21° 92° (E) 09:21:02 435.000/436.395/437.385
CUBEBUG 2 12 Feb 09:19:13 09:22:57 30° 95° (E) 09:26:43 437.445
POLYITAN 1 12 Feb 09:28:53 09:30:46 13° 55° (NE) 09:32:38 437.675
QB50P2 12 Feb 09:29:15 09:31:15 13° 55° (NE) 09:33:16 145.880/145.840
GOMX 1 12 Feb 09:29:16 09:32:43 22° 300° (WNW) 09:36:01 467.674
CINEMA 3 12 Feb 09:30:31 09:34:42 84° 282° (WNW) 09:38:53 145.822/145.860
AO-85 12 Feb 09:34:39 09:38:27 20° 110° (ESE) 09:42:18 145.980
SO-50 12 Feb 09:37:10 09:40:25 17° 2° (N) 09:43:38 436.795
Cosmos 2499 12 Feb 09:38:55 09:47:14 49° 88° (E) 09:55:36 435.465 / 435.565
AO-7 12 Feb 09:40:39 09:41:21 10° 349° (N) 09:42:03 29.400- 29.500
PCSat 12 Feb 09:43:32 09:46:05 13° 103° (ESE) 09:48:39 145.827
CANX-2 12 Feb 09:45:32 09:49:40 46° 291° (WNW) 09:53:48 2200.000
UNISAT 6 12 Feb 09:45:55 09:50:06 53° 70° (ENE) 09:54:17 437.425
POPSAT HIP 1 12 Feb 09:56:50 10:00:02 21° 61° (ENE) 10:03:13 437.405
HUMSAT D 12 Feb 09:58:13 10:00:28 14° 88° (E) 10:02:43 437.325/437.525
NANOSAT C BR1 12 Feb 09:59:42 10:02:57 22° 61° (ENE) 10:06:12 145.865
DUCHIFAT 1 12 Feb 09:59:57 10:03:08 21° 61° (ENE) 10:06:19 145.980
DELFI C3 12 Feb 10:01:03 10:04:40 30° 95° (E) 10:08:16 145.870
ZACube-1 12 Feb 10:01:52 10:05:54 43° 98° (E) 10:10:00 437.345
QB50P1 12 Feb 10:08:46 10:12:18 27° 64° (ENE) 10:15:52 145.935-145.965
FUNcube-1 12 Feb 10:09:26 10:13:33 49° 100° (E) 10:17:42 145.935
GONETS M04 12 Feb 10:12:42 10:21:20 67° 285° (WNW) 10:30:05
COMPASS 1 12 Feb 10:18:00 10:22:00 41° 292° (WNW) 10:25:59 437.405
RS-15 12 Feb 10:18:00 10:26:08 24° 99° (E) 10:34:31 29.354- 29.394
O/OREOS (USA 219) 12 Feb 10:29:04 10:31:56 16° 321° (NW) 10:34:50 437.305
AIST 1 12 Feb 10:29:29 10:33:31 36° 91° (E) 10:37:35
ANTELSAT 12 Feb 10:30:55 10:35:09 57° 259° (W) 10:39:22 437.575/2403.000
DANDE 12 Feb 10:34:51 10:36:30 11° 34° (NE) 10:38:06 436.750
DOVE 4 12 Feb 10:36:20 10:37:18 11° 308° (NW) 10:38:17 437.250
CUTE 1.7 + AOD 2 12 Feb 10:36:27 10:39:33 20° 300° (WNW) 10:42:39 437.475
TIGRISAT 12 Feb 10:36:53 10:41:04 52° 260° (W) 10:45:15 435.000
SEEDS 12 Feb 10:37:40 10:41:03 23° 298° (WNW) 10:44:25 437.485
Oscar 11 12 Feb 10:38:12 10:42:33 70° 287° (WNW) 10:46:52 145.826/435.025
AAUSAT CUBESAT 2 12 Feb 10:44:16 10:47:54 29° 295° (WNW) 10:51:32 437.432
BUGSAT 1 12 Feb 10:48:57 10:52:42 33° 66° (ENE) 10:56:27 437.445
UWE-3 12 Feb 10:50:27 10:54:30 47° 290° (WNW) 10:58:36 435.000/436.395/437.385
HO-68 12 Feb 10:55:12 11:01:35 36° 305° (NW) 11:07:58 435.675
CUBEBUG 2 12 Feb 10:55:52 10:59:37 33° 294° (WNW) 11:03:25 437.445
DX 1 12 Feb 10:55:58 10:57:43 12° 87° (E) 10:59:27 434.975-435.025
POLYITAN 1 12 Feb 11:01:42 11:05:56 83° 74° (ENE) 11:10:11 437.675
QB50P2 12 Feb 11:02:12 11:06:26 86° 74° (ENE) 11:10:42 145.880/145.840
CINEMA 3 12 Feb 11:09:30 11:11:13 12° 305° (NW) 11:12:55 145.822/145.860
AO-85 12 Feb 11:12:52 11:18:20 88° 128° (SE) 11:23:53 145.980
ESTCUBE 1 12 Feb 11:13:18 11:16:41 20° 91° (E) 11:20:03 437.505/2401.250
50 SAT 12 Feb 11:15:21 11:18:10 19° 92° (E) 11:20:59 437.505
SO-50 12 Feb 11:18:17 11:22:28 27° 26° (NNE) 11:26:34 436.795
CUSAT 1 12 Feb 11:19:28 11:24:01 21° 52° (NE) 11:27:48 437.405
PCSat 12 Feb 11:23:08 11:28:32 72° 123° (ESE) 11:33:58 145.827
UNISAT 6 12 Feb 11:24:04 11:27:10 19° 269° (W) 11:30:17 437.425
JAS-2 12 Feb 11:27:07 11:32:04 21° 52° (NE) 11:36:41 435.910
AO-7 12 Feb 11:28:04 11:30:26 11° 17° (NNE) 11:32:49 29.400- 29.500
POPSAT HIP 1 12 Feb 11:31:24 11:35:32 52° 260° (W) 11:39:41 437.405
Cosmos 2499 12 Feb 11:31:51 11:40:24 51° 290° (WNW) 11:49:00 435.465 / 435.565
HUMSAT D 12 Feb 11:32:27 11:36:37 73° 286° (WNW) 11:40:50 437.325/437.525
NANOSAT C BR1 12 Feb 11:34:20 11:38:26 50° 260° (W) 11:42:33 145.865
DUCHIFAT 1 12 Feb 11:34:27 11:38:34 51° 260° (W) 11:42:41 145.980
DELFI C3 12 Feb 11:36:00 11:39:36 31° 294° (WNW) 11:43:11 145.870
ZACube-1 12 Feb 11:38:37 11:42:02 25° 297° (WNW) 11:45:30 437.345
QB50P1 12 Feb 11:44:00 11:47:59 39° 262° (W) 11:51:58 145.935-145.965
FUNcube-1 12 Feb 11:46:18 11:49:34 22° 298° (WNW) 11:52:52 145.935
VELOX 1 12 Feb 11:58:52 12:03:07 44° 99° (E) 12:07:20 145.980
Oscar 19 12 Feb 12:01:50 12:06:16 30° 61° (ENE) 12:10:42 437.125/150
AIST 1 12 Feb 12:07:24 12:11:13 28° 291° (WNW) 12:15:03
UKube-1 12 Feb 12:13:03 12:17:19 54° 101° (E) 12:21:33 .
GONETS M04 12 Feb 12:14:17 12:20:13 20° 311° (NW) 12:26:13
DANDE 12 Feb 12:15:34 12:22:14 36° 60° (ENE) 12:27:31 436.750
AISAT 12 Feb 12:16:00 12:20:26 67° 103° (ESE) 12:24:48 437.250
Oscar 11 12 Feb 12:16:28 12:17:54 11° 306° (NW) 12:19:19 145.826/435.025
SPROUT 12 Feb 12:17:48 12:21:18 24° 93° (E) 12:24:46 437.525
BUGSAT 1 12 Feb 12:24:27 12:28:08 29° 264° (W) 12:31:48 437.445
RS-15 12 Feb 12:25:18 12:36:29 76° 124° (SE) 12:48:19 29.354- 29.394
CUBEBUG 1 12 Feb 12:27:23 12:31:47 72° 103° (ESE) 12:36:06 437.445
DX 1 12 Feb 12:30:12 12:34:35 90° 265° (W) 12:38:56 434.975-435.025
POLYITAN 1 12 Feb 12:40:31 12:42:21 12° 273° (W) 12:44:12 437.675
QB50P2 12 Feb 12:41:10 12:42:52 12° 273° (W) 12:44:35 145.880/145.840
HO-68 12 Feb 12:45:09 12:47:19 12° 328° (NNW) 12:49:28 435.675
50 SAT 12 Feb 12:48:47 12:52:25 43° 290° (WNW) 12:56:02 437.505
ESTCUBE 1 12 Feb 12:49:24 12:53:53 57° 290° (WNW) 12:58:20 437.505/2401.250
YUBILEINY 12 Feb 12:54:10 13:01:38 29° 57° (ENE) 13:09:01 435.215
AO-85 12 Feb 12:54:41 12:59:32 31° 332° (NNW) 13:04:22 145.980
Gurwin Techsat 1B 12 Feb 12:55:35 13:00:20 34° 62° (ENE) 13:05:06 435.225
SO-50 12 Feb 12:58:42 13:03:37 89° 67° (ENE) 13:08:21 436.795
CUSAT 1 12 Feb 13:01:16 13:07:22 77° 261° (W) 13:11:53 437.405
PCSat 12 Feb 13:07:36 13:12:25 31° 325° (NW) 13:17:16 145.827
JAS-2 12 Feb 13:08:52 13:16:18 75° 71° (ENE) 13:22:57 435.910
HUMSAT D 12 Feb 13:10:16 13:11:33 11° 305° (NW) 13:12:51 437.325/437.525
AO-7 12 Feb 13:13:51 13:20:25 27° 43° (NE) 13:26:59 29.400- 29.500
Cosmos 2491 12 Feb 13:14:13 13:17:02 12° 66° (ENE) 13:19:51 435.465 / 435.565
ITAMSAT 1 12 Feb 13:16:57 13:21:26 30° 60° (ENE) 13:25:56 435.822/435.867
Cosmos 2499 12 Feb 13:31:02 13:36:05 16° 316° (NW) 13:41:05 435.465 / 435.565
VELOX 1 12 Feb 13:35:44 13:39:26 26° 298° (WNW) 13:43:06 145.980
SWISSCUBE 12 Feb 13:38:49 13:41:45 16° 88° (E) 13:44:40 437.505
Oscar 19 12 Feb 13:40:21 13:45:23 50° 260° (W) 13:50:26 437.125/150
UKube-1 12 Feb 13:49:47 13:53:05 22° 300° (WNW) 13:56:22 .
TISAT 1 12 Feb 13:50:59 13:55:12 77° 105° (ESE) 13:59:21 437.305
AISAT 12 Feb 13:53:25 13:56:29 19° 302° (WNW) 13:59:34 437.250
SPROUT 12 Feb 13:53:26 13:57:28 42° 292° (WNW) 14:01:29 437.525
DANDE 12 Feb 13:58:40 14:05:37 53° 268° (W) 14:10:55 436.750
CUBEBUG 1 12 Feb 14:04:42 14:07:35 17° 302° (WNW) 14:10:27 437.445
DX 1 12 Feb 14:07:48 14:10:10 14° 305° (NW) 14:12:31 434.975-435.025
ITUPSAT 1 12 Feb 14:16:20 14:20:35 30° 95° (E) 14:24:48 437.325
BEESAT 12 Feb 14:22:45 14:27:09 34° 96° (E) 14:31:29 436.000
ESTCUBE 1 12 Feb 14:29:00 14:29:46 10° 309° (NW) 14:30:32 437.505/2401.250
Cosmos 2504 12 Feb 14:32:21 14:39:25 26° 55° (NE) 14:46:09 435.465 / 435.565
Gurwin Techsat 1B 12 Feb 14:35:09 14:40:12 44° 262° (W) 14:45:18 435.225
AO-85 12 Feb 14:37:47 14:41:41 19° 356° (N) 14:45:29 145.980
RS-15 12 Feb 14:38:41 14:49:50 53° 334° (NNW) 15:01:37 29.354- 29.394
SO-50 12 Feb 14:40:22 14:43:27 17° 249° (WSW) 14:46:28 436.795
CUSAT 1 12 Feb 14:45:57 14:48:05 12° 287° (WNW) 14:50:02 437.405
YUBILEINY 12 Feb 14:50:43 14:59:38 85° 262° (W) 15:08:28 435.215
PCSat 12 Feb 14:54:17 14:57:34 16° 350° (N) 15:00:51 145.827
ITAMSAT 1 12 Feb 14:55:39 15:00:42 50° 260° (W) 15:05:48 435.822/435.867
JAS-2 12 Feb 14:55:42 15:01:49 27° 269° (W) 15:07:30 435.910
M-CUBED/EXP-1 PRIME 12 Feb 14:58:28 15:01:37 33° 62° (ENE) 15:04:40 437.505
Cosmos 2491 12 Feb 15:03:22 15:11:41 53° 89° (E) 15:20:02 435.465 / 435.565
AO-7 12 Feb 15:03:45 15:12:07 80° 66° (ENE) 15:20:31 29.400- 29.500
AUBIESAT-1 12 Feb 15:05:32 15:08:41 33° 62° (ENE) 15:11:44 437.475
KKS-1 12 Feb 15:14:57 15:18:00 18° 90° (E) 15:21:01 437.445
SWISSCUBE 12 Feb 15:15:19 15:20:10 80° 288° (WNW) 15:24:59 437.505
TISAT 1 12 Feb 15:27:53 15:30:20 15° 303° (WNW) 15:32:47 437.305
MOZHAYETS 4 12 Feb 15:31:01 15:32:56 12° 85° (E) 15:34:51
O/OREOS (USA 219) 12 Feb 15:34:23 15:37:13 16° 39° (NE) 15:40:04 437.305
HORYU 2 12 Feb 15:44:28 15:48:46 54° 70° (ENE) 15:53:06 437.375
DANDE 12 Feb 15:45:52 15:46:27 10° 293° (WNW) 15:47:02 436.750
ITUPSAT 1 12 Feb 15:54:01 15:58:34 43° 294° (WNW) 16:03:07 437.325
BEESAT 12 Feb 16:00:33 16:04:58 37° 295° (WNW) 16:09:22 436.000
AO-85 12 Feb 16:19:35 16:23:59 24° 20° (NNE) 16:28:11 145.980
STARS 12 Feb 16:25:22 16:29:35 45° 99° (E) 16:33:47 437.465
Cosmos 2504 12 Feb 16:25:26 16:34:12 89° 78° (ENE) 16:42:20 435.465 / 435.565
ISS 12 Feb 16:25:34 16:28:38 39° 153° (SSE) 16:31:42 145.825
M-CUBED/EXP-1 PRIME 12 Feb 16:33:42 16:36:23 21° 259° (W) 16:39:00 437.505
BRITE-PL 12 Feb 16:37:38 16:40:40 15° 53° (NE) 16:43:37 437.365/2234.400
PCSat 12 Feb 16:39:31 16:43:10 18° 17° (NNE) 16:46:48 145.827
AUBIESAT-1 12 Feb 16:40:41 16:43:23 21° 259° (W) 16:46:01 437.475
YUBILEINY 12 Feb 16:48:49 16:55:09 23° 285° (WNW) 17:01:28 435.215
KKS-1 12 Feb 16:50:37 16:55:01 63° 289° (WNW) 16:59:22 437.445
RS-15 12 Feb 16:54:17 17:05:22 43° 7° (N) 17:16:53 29.354- 29.394
SWISSCUBE 12 Feb 16:54:34 16:57:14 15° 307° (NW) 16:59:54 437.505
CUTE-I 12 Feb 16:56:02 17:00:41 32° 61° (ENE) 17:05:23 437.470
AO-7 12 Feb 16:58:43 17:05:45 29° 268° (W) 17:12:50 29.400- 29.500
Cosmos 2491 12 Feb 17:00:30 17:08:45 45° 293° (WNW) 17:17:04 435.465 / 435.565
MOZHAYETS 4 12 Feb 17:06:10 17:10:51 85° 105° (ESE) 17:15:31
Cubesat XI-IV 12 Feb 17:10:24 17:15:20 40° 64° (ENE) 17:20:18 437.490
O/OREOS (USA 219) 12 Feb 17:12:52 17:17:28 73° 60° (ENE) 17:22:04 437.305
BEESAT 3 12 Feb 17:13:21 17:17:07 42° 123° (ESE) 17:20:54 437.485
LilacSat-2 12 Feb 17:16:26 17:19:41 27° 66° (ENE) 17:22:55 437.200
HORYU 2 12 Feb 17:22:24 17:25:41 20° 268° (W) 17:29:00 437.375
GOMX 1 12 Feb 17:26:55 17:30:27 19° 58° (ENE) 17:33:51 467.674
BEESAT 2 12 Feb 17:43:03 17:46:58 53° 125° (SE) 17:50:55 435.950
CUBESAT XI-V 12 Feb 17:55:32 17:59:51 34° 95° (E) 18:04:07 437.345
HO-68 12 Feb 17:55:42 18:01:00 23° 47° (NE) 18:06:18 435.675
AO-85 12 Feb 18:00:12 18:05:31 64° 44° (NE) 18:10:25 145.980
ISS 12 Feb 18:01:41 18:04:56 85° 346° (NNW) 18:08:13 145.825
STARS 12 Feb 18:02:12 18:05:46 25° 298° (WNW) 18:09:20 437.465
BRITE-PL 12 Feb 18:12:43 18:18:19 68° 72° (ENE) 18:23:41 437.365/2234.400
GONETS M04 12 Feb 18:19:54 18:26:51 25° 54° (NE) 18:33:48
Cosmos 2504 12 Feb 18:19:57 18:26:26 25° 284° (WNW) 18:32:38 435.465 / 435.565
PCSat 12 Feb 18:22:51 18:28:02 41° 41° (NE) 18:33:10 145.827
CUTE 1.7 + AOD 2 12 Feb 18:24:36 18:26:18 12° 55° (NE) 18:28:02 437.475
AIST 2 12 Feb 18:26:08 18:29:13 20° 115° (ESE) 18:32:18 435.215
DOVE 4 12 Feb 18:29:09 18:33:26 31° 65° (ENE) 18:37:31 437.250
KKS-1 12 Feb 18:29:36 18:30:44 11° 309° (NW) 18:31:51 437.445
CUTE-I 12 Feb 18:35:25 18:40:34 49° 261° (W) 18:45:47 437.470
MOZHAYETS 4 12 Feb 18:44:33 18:47:27 17° 304° (WNW) 18:50:20
Cubesat XI-IV 12 Feb 18:50:30 18:55:27 38° 263° (W) 19:00:27 437.490
LilacSat-2 12 Feb 18:50:33 18:53:57 30° 264° (W) 18:57:22 437.200
BEESAT 3 12 Feb 18:51:19 18:54:59 33° 323° (NW) 18:58:39 437.485
O/OREOS (USA 219) 12 Feb 18:53:25 18:56:20 17° 260° (W) 18:59:16 437.305
CINEMA 3 12 Feb 19:01:07 19:04:35 23° 62° (ENE) 19:07:57 145.822/145.860
GOMX 1 12 Feb 19:02:41 19:08:01 85° 257° (WSW) 19:13:02 467.674
Cosmos 2491 12 Feb 19:04:38 19:08:32 13° 321° (NW) 19:12:28 435.465 / 435.565
CANX-2 12 Feb 19:07:48 19:11:31 30° 65° (ENE) 19:15:15 2200.000
RS-15 12 Feb 19:08:21 19:20:22 67° 38° (NE) 19:32:40 29.354- 29.394
BEESAT 2 12 Feb 19:21:33 19:25:06 29° 326° (NW) 19:28:41 435.950
Cosmos 2499 12 Feb 19:24:15 19:31:06 26° 55° (NE) 19:37:33 435.465 / 435.565
CUBESAT XI-V 12 Feb 19:32:58 19:37:16 36° 295° (WNW) 19:41:31 437.345
FUNcube-1 12 Feb 19:37:27 19:38:30 11° 54° (NE) 19:39:34 145.935
ISS 12 Feb 19:38:11 19:41:26 83° 197° (SSW) 19:44:41 145.825
COMPASS 1 12 Feb 19:38:26 19:42:09 32° 66° (ENE) 19:45:54 437.405
HO-68 12 Feb 19:40:33 19:47:43 78° 69° (ENE) 19:54:57 435.675
AO-85 12 Feb 19:41:20 19:45:40 27° 246° (WSW) 19:49:43 145.980
PRISM 12 Feb 19:43:20 19:45:58 16° 90° (E) 19:48:34 437.425
STRAND 1 12 Feb 19:52:26 19:57:33 58° 101° (E) 20:02:38 437.568
BRITE-PL 12 Feb 19:52:48 19:57:12 23° 270° (W) 20:01:29 437.365/2234.400
